[[{"header":{"parameterUnit":"m.s-1","parameterCategory":1,"la1":30.2991,"la2":30.254,"lo1":-89.0895,"lo2":-89.0444,"dy":0.0017,"dx":0.0017,"nx":28,"ny":28,"refTime":"2025-04-23T03:00:00:Z","depth":0,"parameterNumber":2,"parameterNumberName":"U-component_of_WINDS"},"data":[0,0,0,0,0,0,0,0,0,0,0,0,0,0,0,0,0,0,0,0,0,0,0,0,0,0,0,0,0,0,0,0,0,0,0,0,0,0,0,0,0,0,0,0,0,0,0,0,0,0,0,0,0,0,0,0,0,0,-2.4232,-2.4233,0,-2.4293,-2.4294,-2.4295,-2.4289,-2.4289,-2.4288,-2.4287,-2.4349,-2.4351,-2.4354,0,0,0,0,0,0,0,0,0,0,0,0,0,-2.4111,-2.4113,-2.4232,-2.4233,-2.4234,-2.4293,-2.4294,-2.4295,-2.429,-2.4289,-2.4287,-2.4286,-2.4348,-2.4351,-2.4354,0,0,0,0,0,0,0,0,0,0,0,0,0,-2.4167,-2.4114,-2.4232,-2.4238,-2.4239,-2.4293,-2.4294,-2.4295,-2.429,-2.4288,-2.4287,-2.4286,-2.4347,-2.4351,-2.4355,-2.4406,0,0,-2.4366,-2.4368,0,0,0,0,0,0,0,0,-2.4164,-2.4171,-2.4236,-2.4238,-2.4239,-2.4282,-2.4274,-2.4332,-2.429,-2.4271,-2.4287,-2.4285,-2.4328,-2.4333,-2.4348,-2.4409,-2.4412,-2.4367,-2.4369,-2.437,-2.4371,0,0,0,0,0,0,0,-2.416,-2.4169,-2.4256,-2.4237,-2.4239,-2.4238,-2.4244,-2.4285,-2.4306,-2.4272,-2.4272,-2.4279,-2.4328,-2.4344,-2.4349,-2.4412,-2.4366,-2.437,-2.4372,-2.4374,-2.4519,-2.452,0,0,0,0,0,0,-2.4154,-2.4165,-2.4254,-2.4258,-2.4197,-2.4241,-2.4248,-2.427,-2.4306,-2.431,-2.4281,-2.4279,-2.4338,-2.4345,-2.4351,-2.4413,-2.437,-2.4374,-2.4376,-2.4517,-2.4519,-2.4521,0,0,0,0,0,0,-2.4152,-2.4162,-2.4252,-2.4212,-2.4223,-2.4245,-2.4269,-2.4272,-2.4287,-2.4312,-2.4316,-2.4293,-2.4337,-2.4346,-2.4392,-2.4415,-2.4376,-2.4379,-2.4515,-2.4518,-2.452,-2.4538,0,0,0,0,0,0,-2.4148,-2.4161,-2.4181,-2.4212,-2.4225,-2.4292,-2.427,-2.4274,-2.4294,-2.4293,-2.4324,-2.4328,-2.4337,-2.4387,-2.4396,-2.442,-2.4382,-2.4513,-2.4517,-2.4519,-2.4535,-2.4541,-2.4545,0,0,0,0,0,-2.4144,-2.4184,-2.4182,-2.4193,-2.425,-2.4293,-2.4301,-2.431,-2.4296,-2.4316,-2.4332,-2.4327,-2.4412,-2.4392,-2.4402,-2.4427,-2.4512,-2.4516,-2.4519,-2.4533,-2.454,-2.4545,0,0,0,0,0,0,-2.4154,-2.4188,-2.4186,-2.4237,-2.4262,-2.4292,-2.4317,-2.4316,-2.4346,-2.4343,-2.4353,-2.4361,-2.4407,-2.4422,-2.4399,-2.4479,-2.446,-2.4466,-2.4467,-2.4474,-2.4478,-2.4473,-2.4385,0,0,0,0,0,-2.4162,-2.4195,-2.4222,-2.4264,-2.4277,-2.4295,-2.4314,-2.4319,-2.4346,-2.4356,-2.4376,-2.4402,-2.4434,-2.4455,-2.4486,-2.4538,-2.4545,-2.4561,-2.4566,-2.457,-2.4574,-2.4603,-2.461,-2.4533,-2.4533,-2.4533,0,0,-2.4179,-2.4202,-2.4221,-2.4267,-2.4287,-2.432,-2.4304,-2.434,-2.4364,-2.4362,-2.4406,-2.4422,-2.4451,-2.4501,-2.4524,-2.4515,-2.4597,-2.4574,-2.4577,-2.458,-2.4607,-2.4614,-2.4621,-2.4535,-2.4535,-2.4534,0,0,-2.4227,-2.4248,-2.4285,-2.4306,-2.4336,-2.4348,-2.4357,-2.4388,-2.4398,-2.4443,-2.4442,-2.4472,-2.4527,-2.4548,-2.4566,-2.4623,-2.462,-2.4633,-2.4658,-2.4686,-2.4692,-2.4697,-2.4717,-2.4724,-2.4638,-2.4638,-2.4638,0,-2.4244,-2.4294,-2.4304,-2.434,-2.436,-2.436,-2.4398,-2.4417,-2.4457,-2.4471,-2.4461,-2.453,-2.455,-2.4605,-2.4619,-2.4634,-2.4644,-2.4629,-2.469,-2.4696,-2.4701,-2.472,-2.4727,-2.4639,-2.4639,-2.4639,-2.4639,0,-2.4313,-2.4348,-2.4374,-2.4412,-2.4436,-2.4472,-2.4488,-2.4511,-2.4514,-2.4527,-2.4574,-2.4598,-2.4634,-2.4647,-2.4651,-2.4702,-2.4696,-2.4688,-2.4669,-2.471,-2.4727,-2.4735,-2.4641,-2.4641,-2.464,-2.464,0,0,-2.4367,-2.4411,-2.4421,-2.4438,-2.4473,-2.45,-2.4537,-2.4572,-2.4591,-2.4619,-2.465,-2.4697,-2.4691,-2.4711,-2.4717,-2.4742,-2.4785,-2.4731,-2.4732,-2.4739,-2.4842,-2.4847,-2.4855,-2.4784,-2.4785,-2.4786,-2.4839,0,-2.4417,-2.4483,-2.4493,-2.455,-2.4582,-2.4584,-2.4616,-2.4641,-2.4654,-2.4684,-2.4699,-2.4732,-2.4721,-2.4733,-2.4758,-2.4774,-2.4805,-2.4771,-2.4812,-2.4813,-2.4803,-2.4864,-2.4869,-2.4918,-2.4846,-2.4848,-2.4848,0,-2.4484,-2.4514,-2.4574,-2.4605,-2.4619,-2.4647,-2.4681,-2.4709,-2.4737,-2.4746,-2.4769,-2.4773,-2.4811,-2.4792,-2.4845,-2.4821,-2.4839,-2.485,-2.4852,-2.4855,-2.4832,-2.4867,-2.4934,-2.494,-2.486,-2.4859,-2.4858,0,-2.4516,-2.4572,-2.4615,-2.463,-2.4667,-2.4687,-2.4703,-2.473,-2.4751,-2.4781,-2.4794,-2.4828,-2.4846,-2.4872,-2.4885,-2.487,-2.4937,-2.4919,-2.4944,-2.4944,-2.4957,-2.4956,-2.5026,-2.4971,-2.4971,-2.4971,-2.4971,0,-2.4571,-2.4607,-2.4629,-2.4656,-2.4697,-2.471,-2.475,-2.4766,-2.479,-2.482,-2.4824,-2.4851,-2.4867,-2.4897,-2.4908,-2.495,-2.4958,-2.4966,-2.4968,-2.4964,-2.4963,-2.4975,-2.4971,-2.4973,-2.4972,-2.4972,-2.4972,0,-2.4612,-2.4629,-2.4676,-2.4708,-2.4716,-2.4745,-2.4772,-2.4798,-2.4812,-2.485,-2.4859,-2.4881,-2.4917,-2.4933,-2.4977,-2.4984,-2.5031,-2.5032,-2.5022,-2.5022,-2.5046,-2.5043,-2.5125,-2.5136,-2.5075,-2.5076,-2.5076,0,-2.4645,-2.4673,-2.4708,-2.4728,-2.4745,-2.4778,-2.4799,-2.4813,-2.4835,-2.487,-2.4891,-2.4927,-2.4956,-2.5013,-2.5033,-2.5067,-2.5067,-2.5094,-2.5072,-2.5068,-2.5066,-2.5064,-2.5067,-2.5097,-2.5098,-2.5098,-2.5099,0,-2.4701,-2.4708,-2.4739,-2.4772,-2.4798,-2.4825,-2.4852,-2.4868,-2.4886,-2.4911,-2.4947,-2.497,-2.5015,-2.5051,-2.5086,-2.5103,-2.5104,-2.5106,-2.5113,-2.5109,-2.5101,-2.5105,-2.5031,-2.5103,-2.5103,-2.5102,-2.5102,-2.5102,-2.4739,-2.4764,-2.4792,-2.4826,-2.4848,-2.4873,-2.4898,-2.4916,-2.4947,-2.4984,-2.4991,-2.503,-2.5058,-2.5106,-2.5124,-2.5155,-2.5148,-2.5159,-2.5162,-2.5164,-2.5165,-2.5098,-2.5161,-2.5161,-2.5161,-2.5161,-2.5161,0,-2.4794,-2.4812,-2.4843,-2.4881,-2.4908,-2.4907,-2.4937,-2.4959,-2.4993,-2.502,-2.5048,-2.5091,-2.5125,-2.5148,-2.5183,-2.5203,-2.5205,-2.5212,-2.521,-2.5214,-2.5169,-2.5159,-2.521,-2.521,-2.521,-2.521,-2.521,-2.521,-2.4825,-2.4867,-2.4878,-2.4931,-2.4949,-2.4987,-2.5004,-2.5027,-2.5049,-2.5095,-2.5124,-2.5139,-2.5165,-2.5202,-2.5233,-2.5239,-2.5251,-2.5259,-2.5264,-2.5222,-2.5217,-2.5212,-2.5202,-2.5262,-2.5262,-2.5306,-2.5307,-2.5307]},{"header":{"parameterUnit":"m.s-1","parameterCategory":1,"la1":30.2991,"la2":30.254,"lo1":-89.0895,"lo2":-89.0444,"dy":0.0017,"dx":0.0017,"nx":28,"ny":28,"refTime":"2025-04-23T03:00:00:Z","depth":0,"parameterNumber":3,"parameterNumberName":"V-component_of_WINDS"},"data":[0,0,0,0,0,0,0,0,0,0,0,0,0,0,0,0,0,0,0,0,0,0,0,0,0,0,0,0,0,0,0,0,0,0,0,0,0,0,0,0,0,0,0,0,0,0,0,0,0,0,0,0,0,0,0,0,0,0,1.4483,1.4483,0,1.4437,1.4437,1.4436,1.438,1.4379,1.4378,1.4378,1.4328,1.4327,1.4327,0,0,0,0,0,0,0,0,0,0,0,0,0,1.4522,1.4521,1.4483,1.4483,1.4482,1.4437,1.4437,1.4436,1.438,1.4379,1.4378,1.4377,1.4328,1.4327,1.4327,0,0,0,0,0,0,0,0,0,0,0,0,0,1.4493,1.4521,1.4484,1.4449,1.4446,1.4437,1.4437,1.4436,1.4381,1.4379,1.4378,1.4377,1.4328,1.4327,1.4327,1.4347,0,0,1.4324,1.4324,0,0,0,0,0,0,0,0,1.4495,1.4492,1.4455,1.4451,1.4448,1.4413,1.4432,1.4406,1.4381,1.4405,1.4378,1.4376,1.4357,1.4354,1.4348,1.4345,1.4343,1.4324,1.4324,1.4323,1.4323,0,0,0,0,0,0,0,1.4497,1.4493,1.4465,1.4454,1.445,1.4435,1.443,1.4427,1.4389,1.4403,1.4399,1.4394,1.4355,1.4349,1.4346,1.4342,1.4324,1.4323,1.4323,1.4323,1.4355,1.4356,0,0,0,0,0,0,1.4504,1.4496,1.4466,1.4464,1.4469,1.4436,1.443,1.4425,1.4389,1.4382,1.4395,1.4392,1.4351,1.4347,1.4344,1.4367,1.4323,1.4322,1.4322,1.4354,1.4355,1.4357,0,0,0,0,0,0,1.4505,1.4502,1.4468,1.4478,1.4473,1.4437,1.4432,1.4425,1.4419,1.4383,1.4376,1.4396,1.435,1.4345,1.4347,1.4364,1.4322,1.4321,1.4352,1.4354,1.4356,1.4413,0,0,0,0,0,0,1.4507,1.4503,1.4511,1.4479,1.4473,1.4473,1.4433,1.4425,1.4418,1.4413,1.4382,1.4376,1.4348,1.4349,1.4347,1.4363,1.4321,1.435,1.4353,1.4355,1.4409,1.4416,1.4422,0,0,0,0,0,1.4508,1.4528,1.4512,1.4509,1.4482,1.4474,1.447,1.4439,1.442,1.4427,1.4404,1.4377,1.4363,1.435,1.4347,1.4363,1.4349,1.4352,1.4355,1.4406,1.4415,1.4422,0,0,0,0,0,0,1.4562,1.4523,1.4505,1.4515,1.4498,1.4465,1.4473,1.445,1.4438,1.4433,1.4394,1.4388,1.4395,1.4378,1.4364,1.4381,1.4352,1.4355,1.4392,1.44,1.4406,1.441,1.432,0,0,0,0,0,1.4575,1.4573,1.4539,1.4551,1.4544,1.451,1.4505,1.4483,1.4464,1.4457,1.4433,1.4416,1.4407,1.4402,1.4393,1.4406,1.4399,1.4416,1.4423,1.4428,1.4431,1.4438,1.4445,1.4367,1.4367,1.4367,0,0,1.4602,1.4581,1.4581,1.4561,1.4546,1.4544,1.4505,1.4504,1.4502,1.4456,1.4457,1.444,1.4417,1.4425,1.4428,1.4412,1.4451,1.4432,1.4437,1.4436,1.4442,1.4449,1.4456,1.4369,1.4368,1.4368,0,0,1.465,1.4634,1.4642,1.4628,1.4606,1.4583,1.4586,1.4556,1.4543,1.4544,1.451,1.4506,1.4492,1.4478,1.4469,1.4512,1.4487,1.451,1.4545,1.4552,1.4559,1.4564,1.458,1.4586,1.4513,1.4513,1.4513,0,1.4686,1.4682,1.465,1.4651,1.4644,1.4603,1.4612,1.4599,1.4575,1.457,1.4553,1.4536,1.4517,1.4522,1.4533,1.4527,1.4528,1.4514,1.456,1.4565,1.457,1.4585,1.4591,1.4516,1.4516,1.4515,1.4515,0,1.4728,1.4726,1.4736,1.4714,1.4707,1.4713,1.468,1.4677,1.4656,1.4635,1.4636,1.4613,1.4599,1.4598,1.4576,1.46,1.4591,1.4568,1.4538,1.4581,1.4594,1.46,1.4521,1.4519,1.4519,1.4518,0,0,1.4809,1.477,1.4774,1.4764,1.4737,1.4734,1.4737,1.4724,1.4722,1.4707,1.4708,1.4698,1.4677,1.4667,1.4643,1.4649,1.4686,1.4625,1.4624,1.4638,1.4711,1.473,1.4737,1.4669,1.467,1.467,1.4714,0,1.4852,1.4857,1.4828,1.4839,1.4837,1.4799,1.4802,1.4785,1.4766,1.4761,1.4739,1.4734,1.4706,1.4699,1.4704,1.4681,1.4701,1.4677,1.467,1.467,1.4678,1.4744,1.4763,1.4805,1.4719,1.4719,1.472,0,1.4904,1.4892,1.4905,1.4877,1.4875,1.4879,1.4864,1.486,1.484,1.4826,1.4815,1.4788,1.4789,1.4761,1.4761,1.4746,1.4741,1.473,1.4731,1.4729,1.4698,1.4745,1.4817,1.4824,1.4728,1.4727,1.4727,0,1.4963,1.495,1.4956,1.4948,1.4916,1.492,1.4907,1.4886,1.488,1.4867,1.4863,1.485,1.4843,1.4834,1.4804,1.4786,1.4808,1.4777,1.4797,1.4797,1.4803,1.4803,1.4877,1.4799,1.4799,1.4799,1.4799,0,1.5015,1.5024,1.4982,1.4986,1.4995,1.4961,1.497,1.4953,1.4935,1.4935,1.49,1.49,1.4861,1.4856,1.4833,1.4837,1.4834,1.4823,1.4816,1.4826,1.4828,1.4823,1.4819,1.4801,1.48,1.48,1.48,0,1.5082,1.5054,1.5058,1.5028,1.5021,1.5029,1.5003,1.5005,1.4984,1.4984,1.4981,1.4948,1.4941,1.4911,1.4896,1.488,1.4893,1.488,1.49,1.4896,1.4918,1.4917,1.4991,1.4999,1.4916,1.4917,1.4918,0,1.5118,1.5124,1.5095,1.5093,1.5081,1.5078,1.5072,1.5038,1.5034,1.5012,1.5017,1.5007,1.4998,1.4989,1.4963,1.4951,1.4939,1.4965,1.4937,1.4947,1.494,1.494,1.4941,1.4972,1.4973,1.4974,1.4975,0,1.5184,1.517,1.5163,1.5152,1.5147,1.5136,1.5123,1.5123,1.5086,1.5082,1.5075,1.5068,1.5054,1.5045,1.503,1.5015,1.4989,1.4984,1.4988,1.4998,1.501,1.5005,1.4918,1.4982,1.4982,1.4981,1.4981,1.498,1.5237,1.5241,1.5222,1.5216,1.5203,1.5192,1.5192,1.5172,1.5166,1.5152,1.5133,1.5129,1.5109,1.5086,1.5073,1.5069,1.5054,1.506,1.5062,1.5064,1.5069,1.501,1.5066,1.5066,1.5066,1.5065,1.5065,0,1.5302,1.5288,1.5283,1.5267,1.5262,1.5238,1.5223,1.522,1.5218,1.5202,1.5194,1.5186,1.5177,1.5151,1.514,1.5142,1.5129,1.514,1.514,1.5137,1.5083,1.5081,1.515,1.515,1.515,1.515,1.515,1.515,1.5336,1.5342,1.5326,1.5326,1.5311,1.5307,1.5301,1.529,1.5278,1.5271,1.5264,1.5247,1.5227,1.5214,1.5205,1.5198,1.5196,1.521,1.5199,1.5149,1.5141,1.5133,1.5131,1.521,1.521,1.5254,1.5254,1.5254]}]]